Regional Weather Roundup
Issued by NWS

Home | Current Version | Previous Version | Text Only | Print | Product List | Glossary On
Versions: 1 2 3 4 5 6 7 8 9 10 11 12 13 14 15 16 17 18 19 20 21 22 23 24 25 26 27 28 29 30 31 32 33 34 35 36 37 38 39 40 41 42 43 44 45 46 47 48 49 50
000
ASUS43 KLSX 291907
RWRMO

WEATHER SUMMARY FOR MISSOURI
NATIONAL WEATHER SERVICE SPRINGFIELD MO
200 PM CDT WED OCT 29 2014

NOTE: "FAIR" INDICATES FEW OR NO CLOUDS BELOW 12,000 FEET WITH NO
       SIGNIFICANT WEATHER AND/OR OBSTRUCTIONS TO VISIBILITY.
       CURRENT SKY AND/OR WEATHER CONDITIONS ARE NOT AVAILABLE FOR
       CHILLICOTHE AND FARMINGTON.

MOZ001>031-035>038-043-044-053-054-292000-
...NORTHERN AND WESTERN MISSOURI...

CITY           SKY/WX    TMP DP  RH WIND       PRES   REMARKS
KANSAS CTY INT SUNNY     57  34  41 NW7       30.21F
KANSAS C DTWN  SUNNY     59  31  34 VRB5      30.21F
LEE`S SUMMIT   SUNNY     59  32  36 W5        30.21F
ST JOSEPH      SUNNY     57  31  37 VRB5      30.21F
CHILLICOTHE      N/A     56  34  43 NW8       30.22F
KIRKSVILLE     SUNNY     53  35  50 VRB7      30.19F

$$
MOZ066>068-077>081-088>096-101>105-292000-
...SOUTHWEST MISSOURI...

CITY           SKY/WX    TMP DP  RH WIND       PRES   REMARKS
SPRINGFIELD    SUNNY     62  35  36 N3        30.20F
JOPLIN         SUNNY     63  38  39 VRB6      30.22F

$$
MOZ032>034-039>042-045>050-055>058-069>072-292000-
...CENTRAL MISSOURI...

CITY           SKY/WX    TMP DP  RH WIND       PRES   REMARKS
COLUMBIA       SUNNY     57  35  43 W8        30.20F
JEFFERSON CITY SUNNY     58  32  37 NW8       30.20F
ROLLA          SUNNY     57  34  41 MISG      30.18F
SEDALIA        SUNNY     58  31  35 NW9       30.22F
WHITEMAN AFB   SUNNY     57  31  38 N6        30.21F
OSAGE BEACH    SUNNY     59  30  33 N7        30.20F

$$
MOZ051-052-059>065-292000-
...EAST CENTRAL MISSOURI...

CITY           SKY/WX    TMP DP  RH WIND       PRES   REMARKS
ST LOUIS INTL  SUNNY     58  36  43 NW15      30.17F
SPIRIT OF STL  SUNNY     57  35  43 NW5       30.17F
ST CHARLES     SUNNY     56  35  45 NW14      30.17F

$$
MOZ072>076-082>087-097>100-106>115-292000-
...SOUTH CENTRAL AND SOUTHEAST MISSOURI...

CITY           SKY/WX    TMP DP  RH WIND       PRES   REMARKS
CAPE GIRARDEAU SUNNY     63  38  39 N6        30.14F
FARMINGTON     SUNNY     61  32  33 W14G20    30.18F
POPLAR BLUFF   SUNNY     67  33  28 W10       30.14F
WEST PLAINS    SUNNY     65  23  20 NW10G17   30.19F

$$



USA.gov is the U.S. government's official web portal to all federal, state and local government web resources and services.